Monte Terminillo, Italy

6:54 PM CEST on May 26, 2018 (GMT +0200)
Monte Terminillo

Weather History for LIRK - November, 2012

Change the Weather History Date:

Sunday, November 11, 2012

  Actual Average Record
Temperature  
Mean Temperature 44 °F -  
Max Temperature 45 °F 37 °F 50 °F (2005)
Min Temperature 42 °F 29 °F 26 °F (2016)
Degree Days  
Heating Degree Days 22    
Moisture  
Dew Point 44 °F    
Average Humidity 99    
Maximum Humidity 100    
Minimum Humidity 93    
Precipitation  
Precipitation 0.00 in -13.12 in - ()
Sea Level Pressure  
Sea Level Pressure 30.08 in    
Wind  
Wind Speed 24 mph ()    
Max Wind Speed 39 mph    
Max Gust Speed -    
Visibility 0.2 miles    
Events Fog , Rain , Thunderstorm    
Averages and records for this station are not official NWS values.
T = Trace of Precipitation, MM = Missing Value Source: Averaged Metar Reports

Daily Weather History Graph

Daily Weather History Graph

Search for Another Location

Airport or City:

Astronomy

Nov. 11, 2012 Rise Set
Actual Time 6:54 AM CET 4:49 PM CET
Civil Twilight 6:24 AM CET 5:19 PM CET
Nautical Twilight 5:50 AM CET 5:53 PM CET
Astronomical Twilight 5:17 AM CET 6:26 PM CET
Moon 3:45 AM CET (11/11) 3:04 PM CET (11/11)
Length of Visible Light 10h 54m
Length of Day
9h 54m
Waning Crescent, 9% of the Moon is Illuminated
Nov 11
Waning Crescent
Nov 13
New
Nov 20
First Quarter
Nov 28
Full
Dec 6
Last Quarter

Hourly Weather History & Observations

Time (CET) Temp. Dew Point Humidity Pressure Visibility Wind Dir Wind Speed Gust Speed Precip Events Conditions
12:55 AM 44.6 °F 44.6 °F 100% 30.12 in 0.0 mi North - - N/A Fog , Rain Rain
1:00 AM 45 °F 45 °F 100%  in 0 mi SE 25.3 mph - -  
1:55 AM 44.6 °F 44.6 °F 100% 30.12 in 0.0 mi North - - N/A Fog , Rain Light Rain
2:55 AM 44.6 °F 44.6 °F 100% 30.09 in 0.0 mi North - - N/A Fog , Rain Light Rain
3:55 AM 42.8 °F 42.8 °F 100% 30.09 in 0.0 mi North - - N/A Fog , Rain Light Rain
6:55 AM 44.6 °F 42.8 °F 93% 30.04 in - North - - N/A   Scattered Clouds
7:00 AM 44 °F 43 °F 97%  in 6 mi SE 36.8 mph - -  
7:55 AM 44.6 °F 42.8 °F 93% 30.04 in - North - - N/A   Scattered Clouds
8:55 AM 44.6 °F 42.8 °F 93% 30.06 in - North - - N/A   Scattered Clouds
9:55 AM 44.6 °F 42.8 °F 93% 30.06 in - North - - N/A   Scattered Clouds
10:55 AM 44.6 °F 44.6 °F 100% 30.06 in - North - - N/A   Overcast
11:55 AM 44.6 °F 44.6 °F 100% 30.06 in 0.0 mi North - - N/A Fog , Rain Light Rain
12:08 PM 44.6 °F 44.6 °F 100% 30.06 in 0.0 mi North - - N/A Fog , Rain , Thunderstorm Thunderstorms and Rain
12:55 PM 44.6 °F 44.6 °F 100% 30.06 in 0.0 mi North - - N/A Fog , Rain , Thunderstorm Thunderstorms and Rain
1:00 PM 44 °F 44 °F 100%  in 0 mi WNW 39.1 mph - -  
1:55 PM 44.6 °F 44.6 °F 100% 30.04 in 0.0 mi North - - N/A Fog , Rain , Thunderstorm Thunderstorms and Rain
2:21 PM 44.6 °F 44.6 °F 100% 30.06 in 0.0 mi North - - N/A Fog Fog
2:55 PM 44.6 °F 44.6 °F 100% 30.06 in 0.0 mi North - - N/A Fog Fog
3:17 PM 44.6 °F 44.6 °F 100% 30.06 in 0.0 mi North - - N/A Fog , Rain , Thunderstorm Thunderstorms and Rain
4:55 PM 44.6 °F 44.6 °F 100% 30.04 in 0.0 mi North - - N/A Fog , Rain , Thunderstorm Thunderstorms and Rain
5:55 PM 44.6 °F 44.6 °F 100% 30.06 in 0.0 mi North - - N/A Fog , Rain , Thunderstorm Thunderstorms and Rain
6:22 PM 44.6 °F 44.6 °F 100% 30.09 in 0.0 mi North - - N/A Fog Fog
6:55 PM 44.6 °F 44.6 °F 100% 30.09 in 0.0 mi North - - N/A Fog Fog
7:00 PM 45 °F 45 °F 100%  in 0 mi WSW 34.5 mph - -  
7:55 PM 44.6 °F 44.6 °F 100% 30.09 in 0.0 mi North - - N/A Fog Fog
8:55 PM 44.6 °F 44.6 °F 100% 30.12 in 0.0 mi North - - N/A Fog Fog
9:55 PM 44.6 °F 44.6 °F 100% 30.12 in 0.0 mi North - - N/A Fog Fog
10:55 PM 44.6 °F 44.6 °F 100% 30.15 in 0.0 mi North - - N/A Fog Fog
11:55 PM 44.6 °F 44.6 °F 100% 30.15 in 0.0 mi North - - N/A Fog Fog